EN

Hourly Weather La Celle-Saint-Cloud

Today, 24 July, Saturday

Time Temperature Precipitation Wind Pressure Humidity
00:00 +20°C° 0.3 mm 2 mps 745 mmHg 91%
01:00 +20°C° 0.5 mm 2 mps 745 mmHg 92%
02:00 +19°C° 0.5 mm 2 mps 745 mmHg 93%
03:00 +19°C° 0.5 mm 3 mps 745 mmHg 94%
04:00 +19°C° 0.1 mm 3 mps 745 mmHg 92%
05:00 +18°C° 0.1 mm 3 mps 745 mmHg 91%
06:00 +18°C° 0.1 mm 4 mps 745 mmHg 90%
07:00 +19°C° 0 mm 4 mps 746 mmHg 82%
08:00 +21°C° 0 mm 4 mps 746 mmHg 74%
09:00 +22°C° 0 mm 4 mps 746 mmHg 66%
10:00 +23°C° 0 mm 4 mps 746 mmHg 60%
11:00 +25°C° 0 mm 4 mps 746 mmHg 55%
12:00 +26°C° 0 mm 5 mps 746 mmHg 50%
13:00 +26°C° 0 mm 5 mps 746 mmHg 50%
14:00 +26°C° 0 mm 5 mps 745 mmHg 50%
15:00 +26°C° 0 mm 5 mps 745 mmHg 50%
16:00 +25°C° 0.2 mm 5 mps 745 mmHg 56%
17:00 +22°C° 0.2 mm 5 mps 745 mmHg 62%
18:00 +21°C° 0.2 mm 5 mps 745 mmHg 68%
19:00 +20°C° 0 mm 4 mps 745 mmHg 71%
20:00 +19°C° 0 mm 3 mps 746 mmHg 73%
21:00 +19°C° 0 mm 2 mps 746 mmHg 76%
22:00 +18°C° 0.3 mm 3 mps 746 mmHg 80%
23:00 +18°C° 0.3 mm 3 mps 745 mmHg 84%

Tomorrow, 25 July, Sunday

Time Temperature Precipitation Wind Pressure Humidity
00:00 +17°C° 0.3 mm 4 mps 745 mmHg 88%
01:00 +17°C° 0.8 mm 3 mps 745 mmHg 90%
02:00 +17°C° 0.8 mm 3 mps 745 mmHg 92%
03:00 +17°C° 0.8 mm 3 mps 745 mmHg 94%
04:00 +17°C° 0.1 mm 3 mps 744 mmHg 93%
05:00 +17°C° 0.1 mm 3 mps 744 mmHg 93%
06:00 +17°C° 0.1 mm 3 mps 744 mmHg 93%
07:00 +18°C° 0.5 mm 4 mps 744 mmHg 89%
08:00 +19°C° 0.5 mm 4 mps 744 mmHg 85%
09:00 +20°C° 0.5 mm 5 mps 744 mmHg 81%
10:00 +21°C° 0.5 mm 5 mps 744 mmHg 77%
11:00 +21°C° 0.5 mm 5 mps 744 mmHg 73%
12:00 +22°C° 0.5 mm 5 mps 744 mmHg 69%
13:00 +22°C° 0.5 mm 4 mps 744 mmHg 69%
14:00 +22°C° 0.5 mm 4 mps 744 mmHg 70%
15:00 +22°C° 0.5 mm 4 mps 744 mmHg 71%
16:00 +22°C° 0.4 mm 3 mps 744 mmHg 73%
17:00 +21°C° 0.4 mm 3 mps 744 mmHg 76%
18:00 +21°C° 0.4 mm 3 mps 745 mmHg 79%
19:00 +20°C° 0 mm 3 mps 745 mmHg 82%
20:00 +19°C° 0 mm 2 mps 746 mmHg 85%
21:00 +18°C° 0 mm 2 mps 746 mmHg 87%
22:00 +17°C° 0 mm 2 mps 746 mmHg 89%
23:00 +16°C° 0 mm 2 mps 746 mmHg 90%

Day after tomorrow, 26 July, Monday

Time Temperature Precipitation Wind Pressure Humidity
00:00 +16°C° 0 mm 2 mps 747 mmHg 92%
01:00 +16°C° 0 mm 2 mps 747 mmHg 92%
02:00 +15°C° 0 mm 2 mps 747 mmHg 93%
03:00 +15°C° 0 mm 2 mps 747 mmHg 93%
04:00 +16°C° 0 mm 2 mps 747 mmHg 92%
05:00 +16°C° 0 mm 2 mps 748 mmHg 90%
06:00 +17°C° 0 mm 2 mps 748 mmHg 88%
07:00 +18°C° 0 mm 3 mps 748 mmHg 81%
08:00 +20°C° 0 mm 3 mps 748 mmHg 74%
09:00 +22°C° 0 mm 3 mps 749 mmHg 67%
10:00 +22°C° 0.4 mm 3 mps 749 mmHg 65%
11:00 +24°C° 0.4 mm 3 mps 749 mmHg 64%
12:00 +24°C° 0.4 mm 3 mps 749 mmHg 62%
13:00 +24°C° 0.3 mm 3 mps 749 mmHg 62%
14:00 +25°C° 0.3 mm 3 mps 749 mmHg 61%
15:00 +25°C° 0.3 mm 3 mps 749 mmHg 61%
16:00 +24°C° 0.2 mm 3 mps 749 mmHg 62%
17:00 +24°C° 0.2 mm 2 mps 749 mmHg 64%
18:00 +24°C° 0.2 mm 2 mps 748 mmHg 65%
19:00 +23°C° 0.2 mm 1 mps 749 mmHg 69%
20:00 +22°C° 0.2 mm 1 mps 749 mmHg 73%
21:00 +19°C° 0.2 mm 0 mps 749 mmHg 77%
22:00 +18°C° 0.2 mm 0 mps 749 mmHg 79%
23:00 +20°C° 0.2 mm 1 mps 749 mmHg 81%

27 July, Tuesday

Time Temperature Precipitation Wind Pressure Humidity
00:00 +20°C° 0.2 mm 1 mps 749 mmHg 83%
01:00 +19°C° 0.6 mm 1 mps 748 mmHg 85%
02:00 +18°C° 0.6 mm 1 mps 748 mmHg 88%
03:00 +17°C° 0.6 mm 2 mps 748 mmHg 90%
04:00 +17°C° 0.3 mm 2 mps 748 mmHg 90%
05:00 +17°C° 0.3 mm 2 mps 748 mmHg 89%
06:00 +18°C° 0.3 mm 1 mps 748 mmHg 89%
07:00 +18°C° 0 mm 2 mps 749 mmHg 84%
08:00 +19°C° 0 mm 2 mps 749 mmHg 80%
09:00 +19°C° 0 mm 2 mps 749 mmHg 75%
10:00 +21°C° 0.3 mm 2 mps 749 mmHg 71%
11:00 +22°C° 0.3 mm 3 mps 749 mmHg 66%
12:00 +24°C° 0.3 mm 3 mps 749 mmHg 62%
13:00 +25°C° 0.2 mm 4 mps 749 mmHg 57%
14:00 +25°C° 0.2 mm 4 mps 748 mmHg 52%
15:00 +26°C° 0.2 mm 4 mps 748 mmHg 47%
16:00 +25°C° 0 mm 4 mps 748 mmHg 51%
17:00 +25°C° 0 mm 4 mps 748 mmHg 54%
18:00 +24°C° 0 mm 3 mps 748 mmHg 58%
19:00 +22°C° 0.1 mm 3 mps 749 mmHg 66%
20:00 +20°C° 0.1 mm 2 mps 749 mmHg 73%
21:00 +18°C° 0.1 mm 2 mps 750 mmHg 81%
22:00 +18°C° 0 mm 2 mps 750 mmHg 83%
23:00 +17°C° 0 mm 2 mps 750 mmHg 84%

28 July, Wednesday

Time Temperature Precipitation Wind Pressure Humidity
00:00 +17°C° 0 mm 2 mps 750 mmHg 86%
01:00 +16°C° 0 mm 2 mps 750 mmHg 87%
02:00 +16°C° 0 mm 2 mps 750 mmHg 87%
03:00 +15°C° 0 mm 2 mps 750 mmHg 88%
04:00 +16°C° 0 mm 2 mps 750 mmHg 85%
05:00 +16°C° 0 mm 2 mps 750 mmHg 82%
06:00 +16°C° 0 mm 2 mps 751 mmHg 79%
07:00 +17°C° 0 mm 2 mps 751 mmHg 72%
08:00 +19°C° 0 mm 2 mps 751 mmHg 65%
09:00 +21°C° 0 mm 2 mps 751 mmHg 58%
10:00 +23°C° 0 mm 2 mps 751 mmHg 55%
11:00 +24°C° 0 mm 3 mps 750 mmHg 51%
12:00 +25°C° 0 mm 3 mps 750 mmHg 48%
13:00 +25°C° 0 mm 3 mps 750 mmHg 49%
14:00 +25°C° 0 mm 3 mps 750 mmHg 50%
15:00 +25°C° 0 mm 3 mps 750 mmHg 51%
16:00 +24°C° 0 mm 3 mps 750 mmHg 54%
17:00 +23°C° 0 mm 2 mps 750 mmHg 57%
18:00 +23°C° 0 mm 1 mps 750 mmHg 61%
19:00 +22°C° 0 mm 1 mps 750 mmHg 63%
20:00 +21°C° 0 mm 1 mps 750 mmHg 65%
21:00 +21°C° 0 mm 1 mps 750 mmHg 66%
22:00 +19°C° 0 mm 2 mps 750 mmHg 68%
23:00 +18°C° 0 mm 2 mps 750 mmHg 71%

29 July, Thursday

Time Temperature Precipitation Wind Pressure Humidity
00:00 +17°C° 0 mm 2 mps 750 mmHg 73%
01:00 +17°C° 0 mm 2 mps 750 mmHg 76%
02:00 +16°C° 0 mm 2 mps 750 mmHg 79%
03:00 +15°C° 0 mm 2 mps 750 mmHg 81%
04:00 +16°C° 0 mm 2 mps 750 mmHg 81%
05:00 +16°C° 0 mm 2 mps 750 mmHg 81%
06:00 +16°C° 0 mm 2 mps 750 mmHg 80%
07:00 +18°C° 0 mm 2 mps 750 mmHg 73%
08:00 +20°C° 0 mm 3 mps 750 mmHg 66%
09:00 +21°C° 0 mm 4 mps 750 mmHg 59%
10:00 +22°C° 0 mm 4 mps 750 mmHg 55%
11:00 +23°C° 0 mm 4 mps 750 mmHg 52%
12:00 +25°C° 0 mm 4 mps 749 mmHg 48%
13:00 +25°C° 0 mm 4 mps 749 mmHg 50%
14:00 +23°C° 0 mm 4 mps 748 mmHg 51%
15:00 +23°C° 0 mm 4 mps 748 mmHg 53%
16:00 +23°C° 0 mm 4 mps 748 mmHg 53%
17:00 +24°C° 0 mm 3 mps 747 mmHg 54%
18:00 +24°C° 0 mm 3 mps 747 mmHg 54%
19:00 +22°C° 0.1 mm 3 mps 747 mmHg 60%
20:00 +21°C° 0.1 mm 3 mps 747 mmHg 65%
21:00 +19°C° 0.1 mm 4 mps 747 mmHg 71%
22:00 +18°C° 0 mm 4 mps 748 mmHg 74%
23:00 +18°C° 0 mm 4 mps 748 mmHg 77%
Show more